Weather History for KHPN - June, 2013

Change the Weather History Date:

Saturday, June 29, 2013

  Actual Average Record
Temperature  
Mean Temperature 74 °F -  
Max Temperature 82 °F 79 °F 94 °F (1991)
Min Temperature 66 °F 61 °F 52 °F (1988)
Cooling Degree Days 8    
Growing Degree Days 24 (Base 50)    
Moisture  
Dew Point 66 °F    
Average Humidity 78    
Maximum Humidity 93    
Minimum Humidity 58    
Precipitation  
Precipitation 0.00 in - - ()
Sea Level Pressure  
Sea Level Pressure 29.59 in    
Wind  
Wind Speed 4 mph (South)    
Max Wind Speed 14 mph    
Max Gust Speed 18 mph    
Visibility 9 miles    
Events      
Averages and records for this station are not official NWS values.
T = Trace of Precipitation, MM = Missing Value Source: NWS Daily Summary

Daily Weather History Graph

Daily Weather History Graph

Search for Another Location

Airport or City:

Trip Planner

Search our weather history database for the weather conditions in past years. The results will help you decide how hot, cold, wet, or windy it might be!

Date:

Astronomy

Jun. 29, 2013 Rise Set
Actual Time 5:25 AM EDT 8:31 PM EDT
Civil Twilight 4:51 AM EDT 9:04 PM EDT
Nautical Twilight 4:08 AM EDT 9:47 PM EDT
Astronomical Twilight 3:18 AM EDT 10:38 PM EDT
Moon No Moon Rise 12:38 PM EDT (6/29)
Length of Visible Light 16h 12m
Length of Day
15h 05m
Waning Gibbous, 56% of the Moon is Illuminated
Jun 29
Waning Gibbous
Jun 30
Last Quarter
Jul 8
New
Jul 15
First Quarter
Jul 22
Full

Hourly Weather History & Observations

Time (EDT) Temp. Heat Index Dew Point Humidity Pressure Visibility Wind Dir Wind Speed Gust Speed Precip Events Conditions
12:56 AM 71.1 °F - 64.0 °F 78% 29.49 in 10.0 mi SE 4.6 mph - N/A   Partly Cloudy
1:56 AM 71.1 °F - 64.0 °F 78% 29.50 in 10.0 mi South 3.5 mph - N/A   Scattered Clouds
2:56 AM 69.1 °F - 64.9 °F 87% 29.49 in 10.0 mi Calm Calm - N/A   Clear
3:56 AM 66.9 °F - 64.0 °F 90% 29.49 in 9.0 mi Calm Calm - N/A   Clear
4:56 AM 68.0 °F - 64.9 °F 90% 29.52 in 8.0 mi Calm Calm - N/A   Partly Cloudy
5:56 AM 68.0 °F - 64.9 °F 90% 29.54 in 8.0 mi Calm Calm - N/A   Scattered Clouds
6:06 AM 68.0 °F - 64.4 °F 88% 29.56 in 8.0 mi South 3.5 mph - N/A   Mostly Cloudy
6:56 AM 69.1 °F - 66.0 °F 90% 29.55 in 8.0 mi South 3.5 mph - N/A   Scattered Clouds
7:56 AM 70.0 °F - 66.0 °F 87% 29.57 in 9.0 mi South 4.6 mph - N/A   Scattered Clouds
8:56 AM 72.0 °F - 66.9 °F 84% 29.57 in 10.0 mi SSE 4.6 mph - N/A   Mostly Cloudy
9:56 AM 73.0 °F - 64.9 °F 76% 29.59 in 8.0 mi Variable 3.5 mph - N/A   Mostly Cloudy
10:56 AM 77.0 °F - 64.9 °F 66% 29.58 in 8.0 mi Variable 6.9 mph - N/A   Scattered Clouds
11:56 AM 78.1 °F - 64.0 °F 62% 29.59 in 8.0 mi SSW 6.9 mph - N/A   Mostly Cloudy
12:56 PM 80.1 °F 81.9 °F 64.9 °F 60% 29.59 in 8.0 mi SW 4.6 mph - N/A   Mostly Cloudy
1:56 PM 80.1 °F 81.7 °F 64.0 °F 58% 29.59 in 8.0 mi South 9.2 mph - N/A   Mostly Cloudy
2:56 PM 79.0 °F - 66.0 °F 64% 29.60 in 8.0 mi South 6.9 mph - N/A   Mostly Cloudy
3:56 PM 81.0 °F 83.3 °F 66.9 °F 62% 29.61 in 10.0 mi South 9.2 mph 18.4 mph N/A   Scattered Clouds
4:56 PM 80.1 °F 82.3 °F 66.9 °F 64% 29.62 in 10.0 mi South 12.7 mph 18.4 mph N/A   Scattered Clouds
5:56 PM 79.0 °F - 66.9 °F 66% 29.62 in 10.0 mi South 13.8 mph 18.4 mph N/A   Scattered Clouds
6:56 PM 77.0 °F - 68.0 °F 74% 29.63 in 10.0 mi South 8.1 mph 18.4 mph N/A   Partly Cloudy
7:56 PM 73.9 °F - 68.0 °F 82% 29.65 in 10.0 mi SSE 6.9 mph - N/A   Scattered Clouds
8:56 PM 72.0 °F - 68.0 °F 87% 29.66 in 10.0 mi SE 4.6 mph - N/A   Partly Cloudy
9:56 PM 71.1 °F - 68.0 °F 90% 29.68 in 9.0 mi Calm Calm - N/A   Clear
10:56 PM 70.0 °F - 66.9 °F 90% 29.69 in 8.0 mi Calm Calm - N/A   Clear
11:56 PM 69.1 °F - 66.9 °F 93% 29.70 in 5.0 mi Calm Calm - N/A   Clear